OBJECT AA, 69004

Orbit data source: Space-Track

You're viewing an Uncataloged Satellite

Recently launched and/or uncataloged satellites may have evolving metadata. Metadata may include but not limited to: Owner, Maufacturer, Bus, Motor, and Mission.

OBJECT AA, 69004 is a satellite in SSO that was launched on Sun, 03 May 2026 UTC launched from the Air Force Western Test Range (AFWTR). Unknown objects in Earth's orbit typically refer to objects detected orbiting the Earth but have not yet been identified or cataloged. These objects could be anything from previously untracked satellites, spent rocket stages, debris from satellite collisions, or even natural meteoroids temporarily captured by Earth's gravity.

Loading next visibility...
Identifier
69004, 2026-100AA
Orbit
SSO
Country
Flag of TBDTBD
Related business
None
Manufacturer
Unknown
Mission
Operational spacecraft
Bus & Motor
Unknown
Mass
Unknown
Launch date (UTC)
2026-05-03 (1 week ago)
Launch vehicle
Unknown
Launch site
Air Force Western Test Range (AFWTR)
Object type
Unknown
Shape & HBR
Unknown
Radar Cross Section
RCS unknown

Expand to show TLE details & history
Last TLE update: 7 hours ago

TLE from 7 hours ago
0 OBJECT AA
1 69004U 26100AA  26130.16668980  .00059591  00000-0  27541-2 0  9994
2 69004  97.4083  28.6707 0005685 131.5495 155.9839 15.19932958  1524
Epoch: 2026-05-10T04:00Z
TLE epoch observation values (Epoch: 2026-05-10T04:00:01.998Z)
Latitude
-71.13142°
Longitude
122.92118°
Altitude
536.064 km
Speed
7.591 km/s
True Right ascension
03h 23m 36s
True Declination
-71° 01' 21"
Sunlit
Object was in daylight at epoch
Visualization orbit readout
Latitude
Unknown
Longitude
Unknown
Altitude
Unknown
Speed
Unknown
Apparent Right ascension
Unknown
Apparent Declination
Unknown
Sunlit
N/A
Visualization observer readout
Local Sidereal Time
18:56:55
Azimuth
Unknown
Elevation
Unknown
Doppler factor
Unknown
Orbital elements
Apogee altitude
506.921 km
Perigee altitude
499.097 km
Semi-major axis
6,881.146 km
Eccentricity
0.00057
Inclination
97.4083°
RAAN
28.6707°
Arg. of periapsis
131.5495°
True anomaly
156.0104°
Mean anomaly
155.9839°
Eccentric anomaly
155.99715°
Mean motion
3.80235 °/min
Orbital period
94.68 mins
BSTAR
0.0027541
Loading maneuver chart data...
Computing Atmospheric mass density...
Loading historical data...
Loading historical data...
Loading historical data...
Loading historical data...
Loading historical data...
Loading historical data...
Loading historical data...

Documentation

Showing up to 5 results
|